Vorticity
19 17 21 18 12 22 23 14 16 28 -4 32 28 51 -8 28 15 25 10 12 66 16 3 4 5 4 4 7 6 4 6 8 6 11 8 8 7 8
11 17 22 27 19 14 27 18 20 16 14 -9 27 5 16 27 11 53 75 21 50 24 -9 -4 18 7 7 2 8 7 3 10 4 7 1 1 5 9
9 9 25 17 20 18 24 29 29 18 2 13 -10 12 -0 17 13 5 8 6 5 47 22 11 2 26 5 3 4 4 11 4 9 5 6 6 -0 14
10 15 15 11 11 21 18 30 17 6 18 10 16 8 16 1 17 7 12 3 3 59 12 7 -25 13 14 3 4 9 5 7 8 8 7 6 -4 32
12 11 13 20 7 31 28 25 8 13 19 29 3 4 -4 8 5 6 7 1 6 12 10 17 9 20 19 12 4 14 7 7 5 10 9 6 1 -4
13 19 14 10 14 10 35 19 2 23 30 9 7 1 5 20 -2 3 7 11 12 9 9 8 15 11 9 14 14 18 2 14 10 6 9 7 8 28
22 19 19 17 19 14 52 -2 34 -5 22 6 3 5 13 9 4 -1 1 14 10 1 1 8 19 20 7 13 20 12 5 3 -3 13 7 8 9 -4
13 24 20 25 13 35 46 67 67 -22 8 14 8 11 12 4 -5 17 11 8 16 17 11 3 11 18 6 -5 8 29 19 6 12 -13 17 12 13 -1
-1 2 30 10 28 15 26 21 36 -16 10 16 20 9 3 -7 18 20 -11 5 15 23 6 13 -0 16 13 12 7 4 36 20 27 7 32 3 8 8
12 -0 6 26 30 19 16 36 17 7 21 8 10 14 -2 1 22 16 12 31 20 18 6 18 16 -8 7 28 9 6 2 12 18 41 -20 13 13 8
13 12 5 21 14 22 20 13 45 20 23 17 24 7 -4 7 -11 -18 19 -19 15 7 4 -1 14 38 30 34 22 11 39 21 1 28 21 -4 -6 -3
12 14 13 14 17 12 24 22 20 34 2 33 27 9 8 7 19 12 -8 2 3 10 19 23 10 -10 -9 14 12 6 7 36 8 19 1 5 21 25
13 13 15 13 14 16 7 26 17 19 35 30 19 25 25 32 10 4 11 2 -1 3 6 -4 6 5 3 13 15 24 -0 4 12 17 20 32 3 13
10 12 13 15 13 14 18 12 15 17 21 28 27 27 -2 11 19 -4 11 12 11 5 11 4 14 12 7 3 -1 5 9 -6 -5 -5 1 27 11 29
10 11 12 13 16 16 19 -6 21 7 -9 25 22 10 12 15 12 10 13 11 11 12 12 12 12 13 11 13 12 30 1 -3 -0 -4 1 10 24 11
9 10 13 14 13 11 16 18 13 13 23 -6 -6 22 30 10 6 12 12 12 13 14 14 12 10 11 10 10 10 11 6 22 27 15 13 15 7 1
14 12 10 9 10 11 14 16 16 17 20 26 -13 3 2 23 23 13 15 14 13 11 11 9 8 9 8 8 11 10 6 16 24 5 4 5 1 6
13 12 14 12 10 11 12 14 16 16 15 18 17 13 6 1 7 19 12 11 11 11 11 9 8 8 8 9 10 9 10 9 9 18 10 29 14 13
10 9 10 11 13 12 11 10 12 13 16 16 16 20 13 18 4 -3 4 17 13 12 12 11 10 9 9 9 8 9 12 9 9 6 17 4 26 -1
12 12 12 12 12 13 14 12 13 11 10 12 15 14 15 18 22 18 21 11 13 16 12 10 10 10 8 10 10 9 9 9 12 10 7 9 8 13
14 13 12 12 12 11 11 13 12 12 12 13 12 13 14 14 16 14 15 16 13 8 12 14 12 14 12 10 11 12 14 13 12 12 10 9 7 12
15 14 13 12 11 11 12 12 12 12 12 12 12 11 12 12 12 14 15 15 16 16 16 16 14 15 15 14 13 12 11 11 14 15 15 11 11 14
12 14 14 14 14 13 12 11 11 12 12 12 11 11 11 12 12 11 12 13 14 16 15 15 15 16 14 14 14 15 15 14 12 16 16 14 20 18
Height
2943 2940 2940 2940 2939 2941 2947 2952 2957 2962 2965 2972 2979 2984 2989 2990 2992 2995 2998 3003 3006 3015 3020 3025 3036 3041 3047 3051 3055 3059 3062 3066 3070 3073 3077 3080 3083 3086
2933 2928 2925 2925 2925 2926 2930 2936 2943 2947 2952 2959 2967 2974 2976 2978 2979 2982 2985 2989 2994 3001 3007 3015 3022 3027 3035 3040 3044 3048 3053 3056 3061 3064 3068 3072 3075 3078
2923 2917 2914 2912 2911 2912 2914 2920 2927 2934 2938 2947 2955 2961 2964 2969 2972 2976 2979 2983 2983 2985 2994 3002 3008 3012 3021 3028 3033 3038 3042 3046 3050 3055 3059 3062 3065 3068
2912 2908 2904 2902 2900 2899 2901 2905 2911 2919 2925 2933 2941 2948 2952 2958 2963 2966 2971 2973 2974 2976 2983 2992 2996 3002 3009 3016 3021 3027 3032 3037 3040 3044 3048 3052 3055 3057
2903 2899 2896 2891 2889 2886 2887 2891 2895 2902 2910 2918 2928 2937 2942 2947 2952 2955 2960 2963 2965 2972 2977 2982 2985 2989 2996 3003 3009 3014 3019 3026 3030 3034 3037 3042 3046 3047
2896 2891 2886 2881 2877 2874 2875 2878 2881 2886 2891 2904 2915 2924 2929 2935 2940 2945 2948 2954 2959 2963 2968 2971 2975 2980 2985 2991 2996 3002 3007 3012 3018 3023 3027 3031 3035 3038
2891 2885 2879 2873 2868 2865 2863 2864 2868 2874 2881 2888 2900 2911 2916 2921 2926 2934 2939 2945 2950 2953 2958 2961 2964 2969 2974 2978 2983 2989 2996 3001 3006 3010 3016 3020 3024 3027
2886 2879 2872 2866 2862 2857 2852 2854 2859 2861 2867 2881 2890 2901 2905 2912 2918 2923 2929 2934 2937 2942 2946 2950 2953 2957 2964 2968 2971 2978 2984 2990 2994 2999 3002 3008 3012 3017
2879 2873 2866 2860 2854 2850 2847 2844 2848 2855 2856 2871 2875 2887 2892 2900 2907 2913 2917 2923 2926 2932 2936 2939 2943 2948 2954 2959 2963 2967 2971 2976 2981 2985 2988 2995 3000 3005
2874 2867 2862 2856 2849 2845 2842 2840 2838 2837 2844 2865 2868 2875 2880 2889 2895 2902 2907 2911 2915 2921 2925 2929 2933 2937 2944 2947 2951 2956 2960 2965 2969 2972 2977 2980 2988 2993
2870 2863 2858 2854 2847 2841 2838 2834 2830 2834 2832 2847 2855 2864 2873 2878 2885 2890 2895 2899 2906 2908 2912 2919 2923 2927 2933 2937 2941 2946 2948 2953 2958 2961 2966 2971 2974 2980
2866 2862 2855 2850 2845 2841 2834 2833 2830 2830 2834 2840 2847 2855 2863 2868 2872 2880 2884 2890 2893 2901 2905 2908 2915 2920 2923 2927 2929 2933 2938 2940 2945 2949 2954 2958 2962 2965
2860 2857 2853 2847 2842 2837 2836 2832 2829 2828 2831 2835 2841 2847 2853 2858 2859 2863 2868 2877 2884 2890 2895 2900 2905 2909 2913 2918 2924 2925 2929 2933 2936 2939 2942 2946 2949 2950
2858 2852 2848 2845 2841 2837 2835 2831 2828 2827 2828 2830 2835 2839 2845 2847 2852 2856 2862 2867 2874 2881 2886 2891 2896 2901 2904 2909 2914 2917 2920 2923 2927 2930 2932 2934 2935 2938
2854 2849 2845 2841 2837 2837 2833 2829 2829 2830 2830 2832 2835 2838 2844 2845 2848 2855 2858 2861 2867 2873 2878 2881 2886 2891 2893 2897 2901 2905 2909 2912 2916 2919 2922 2925 2927 2928
2852 2847 2843 2839 2836 2832 2828 2828 2828 2827 2828 2829 2830 2833 2836 2839 2843 2851 2852 2855 2859 2865 2868 2872 2876 2880 2883 2887 2890 2894 2899 2900 2906 2910 2912 2915 2918 2920
2846 2843 2840 2837 2834 2831 2828 2826 2825 2824 2823 2824 2826 2827 2831 2834 2837 2843 2844 2849 2852 2856 2860 2864 2867 2871 2874 2878 2881 2885 2889 2891 2896 2899 2901 2904 2907 2909
2840 2837 2835 2833 2831 2829 2827 2824 2823 2823 2823 2822 2822 2824 2827 2828 2831 2834 2836 2839 2843 2847 2852 2854 2857 2861 2865 2868 2871 2876 2880 2883 2886 2889 2890 2893 2896 2898
2835 2832 2830 2828 2826 2823 2821 2820 2820 2819 2819 2818 2819 2821 2822 2824 2826 2829 2830 2833 2836 2840 2843 2845 2847 2850 2853 2856 2861 2865 2869 2872 2875 2878 2880 2883 2886 2887
2831 2828 2825 2822 2820 2819 2818 2816 2814 2814 2813 2813 2813 2813 2815 2817 2819 2820 2821 2825 2828 2832 2834 2835 2837 2839 2841 2845 2849 2854 2856 2860 2864 2866 2868 2871 2874 2876
2828 2825 2821 2818 2816 2814 2812 2812 2811 2810 2810 2810 2809 2808 2809 2809 2809 2810 2813 2815 2818 2821 2823 2825 2827 2830 2833 2834 2838 2842 2845 2847 2851 2855 2857 2859 2862 2865
2823 2821 2818 2815 2812 2810 2808 2807 2806 2807 2806 2805 2805 2804 2804 2803 2804 2805 2807 2809 2810 2812 2814 2815 2817 2819 2822 2824 2827 2829 2832 2835 2838 2842 2845 2848 2851 2853
2820 2817 2815 2813 2810 2808 2806 2804 2803 2802 2801 2799 2798 2797 2797 2797 2797 2798 2799 2799 2801 2802 2803 2804 2806 2808 2811 2813 2815 2818 2821 2823 2826 2829 2833 2835 2838 2842